[[{"header":{"parameterUnit":"m.s-1","parameterCategory":1,"la1":30.2991,"la2":30.254,"lo1":-89.0895,"lo2":-89.0444,"dy":0.0017,"dx":0.0017,"nx":28,"ny":28,"refTime":"2024-05-16T21:00:00:Z","depth":0,"parameterNumber":2,"parameterNumberName":"U-component_of_WINDS"},"data":[0,0,0,0,0,0,0,0,0,0,0,0,0,0,0,0,0,0,0,0,0,0,0,0,0,0,0,0,0,0,0,0,0,0,0,0,0,0,0,0,0,0,0,0,0,0,0,0,0,0,0,0,0,0,0,0,0,0,-5.0064,-5.0065,0,-5.0132,-5.0132,-5.0133,-5.0089,-5.0087,-5.0085,-5.0083,-5.015,-5.0153,-5.0157,0,0,0,0,0,0,0,0,0,0,0,0,0,-4.9894,-4.9898,-5.0064,-5.0065,-5.0066,-5.0131,-5.0132,-5.0133,-5.0089,-5.0087,-5.0085,-5.0082,-5.0149,-5.0153,-5.0157,0,0,0,0,0,0,0,0,0,0,0,0,0,-4.9966,-4.9899,-5.0064,-5.0052,-5.0051,-5.0131,-5.0132,-5.0134,-5.009,-5.0087,-5.0084,-5.0081,-5.0147,-5.0152,-5.0158,-5.0253,0,0,-5.0175,-5.0177,0,0,0,0,0,0,0,0,-4.9962,-4.9972,-5.0053,-5.0053,-5.0052,-5.0099,-5.0097,-5.0173,-5.0091,-5.0075,-5.0083,-5.008,-5.0135,-5.0141,-5.0161,-5.0256,-5.0259,-5.0175,-5.0178,-5.0181,-5.0182,0,0,0,0,0,0,0,-4.9957,-4.9969,-5.0091,-5.0054,-5.0054,-5.0042,-5.0049,-5.0111,-5.0121,-5.0076,-5.0073,-5.0082,-5.0134,-5.0155,-5.0162,-5.0259,-5.0175,-5.018,-5.0183,-5.0185,-5.0434,-5.0437,0,0,0,0,0,0,-4.9953,-4.9965,-5.0088,-5.0093,-4.9999,-5.0048,-5.0055,-5.0087,-5.012,-5.0123,-5.0085,-5.008,-5.0148,-5.0155,-5.0164,-5.0275,-5.0181,-5.0186,-5.0189,-5.0431,-5.0435,-5.0438,0,0,0,0,0,0,-4.995,-4.9965,-5.0086,-5.0028,-5.0043,-5.0054,-5.009,-5.009,-5.0111,-5.0127,-5.0128,-5.0104,-5.0145,-5.0156,-5.0231,-5.0277,-5.0188,-5.0193,-5.0427,-5.0432,-5.0437,-5.0499,0,0,0,0,0,0,-4.9945,-4.9964,-5.0,-5.0029,-5.0046,-5.0152,-5.0093,-5.0093,-5.0121,-5.0115,-5.0146,-5.0148,-5.0144,-5.0223,-5.0236,-5.0283,-5.0198,-5.0423,-5.0429,-5.0435,-5.0493,-5.0506,-5.0517,0,0,0,0,0,-4.9939,-5.0015,-5.0002,-5.0017,-5.0092,-5.0155,-5.0164,-5.0159,-5.0125,-5.0161,-5.0171,-5.0147,-5.0271,-5.0231,-5.0245,-5.0294,-5.042,-5.0427,-5.0435,-5.0488,-5.0503,-5.0516,0,0,0,0,0,0,-4.999,-5.0018,-5.0005,-5.0092,-5.0122,-5.0147,-5.0192,-5.0176,-5.0215,-5.0207,-5.0199,-5.0206,-5.0283,-5.0297,-5.0252,-5.0387,-5.034,-5.035,-5.0375,-5.039,-5.0401,-5.0395,-5.0202,0,0,0,0,0,-5.0011,-5.0061,-5.0083,-5.0158,-5.0174,-5.0181,-5.0208,-5.0202,-5.0231,-5.0243,-5.0259,-5.0288,-5.0333,-5.0363,-5.0405,-5.0496,-5.0501,-5.0537,-5.0549,-5.0559,-5.0567,-5.0614,-5.0629,-5.0463,-5.0463,-5.0463,0,0,-5.0056,-5.0078,-5.0109,-5.0169,-5.0191,-5.0241,-5.0191,-5.0247,-5.0284,-5.0251,-5.0322,-5.0335,-5.0367,-5.0449,-5.0486,-5.0463,-5.0615,-5.0568,-5.0576,-5.0579,-5.0623,-5.0639,-5.0653,-5.0468,-5.0467,-5.0466,0,0,-5.0162,-5.0185,-5.0249,-5.0272,-5.0306,-5.0311,-5.0327,-5.0355,-5.0363,-5.0434,-5.041,-5.0454,-5.0533,-5.0556,-5.0578,-5.0694,-5.0672,-5.0709,-5.0769,-5.0815,-5.0828,-5.0839,-5.0878,-5.0892,-5.0717,-5.0718,-5.0718,0,-5.0212,-5.0288,-5.0284,-5.0341,-5.0367,-5.0342,-5.0406,-5.0429,-5.0475,-5.0493,-5.0467,-5.0564,-5.0584,-5.067,-5.0699,-5.0719,-5.0735,-5.0703,-5.0826,-5.0838,-5.0848,-5.0885,-5.09,-5.0722,-5.0721,-5.0721,-5.072,0,-5.0347,-5.04,-5.0447,-5.0493,-5.0525,-5.0586,-5.059,-5.0623,-5.0614,-5.0621,-5.0694,-5.0717,-5.0763,-5.0784,-5.0776,-5.087,-5.0853,-5.0828,-5.0778,-5.0868,-5.0902,-5.0917,-5.0727,-5.0726,-5.0725,-5.0724,0,0,-5.0483,-5.0527,-5.0544,-5.0564,-5.0601,-5.0641,-5.0701,-5.0747,-5.0774,-5.0808,-5.0855,-5.0924,-5.0899,-5.0924,-5.0919,-5.096,-5.1048,-5.0929,-5.0929,-5.0947,-5.1149,-5.1166,-5.1182,-5.1035,-5.1038,-5.104,-5.1145,0,-5.0589,-5.0692,-5.0691,-5.0786,-5.0834,-5.0812,-5.0863,-5.0891,-5.09,-5.0941,-5.0951,-5.0998,-5.0964,-5.0978,-5.1018,-5.1029,-5.1088,-5.1022,-5.1077,-5.1079,-5.1066,-5.1201,-5.1219,-5.1317,-5.1159,-5.1161,-5.1163,0,-5.0725,-5.0763,-5.0864,-5.0893,-5.0913,-5.0959,-5.1001,-5.1041,-5.1072,-5.1076,-5.1105,-5.1093,-5.1152,-5.1105,-5.1185,-5.114,-5.1164,-5.1173,-5.1176,-5.1178,-5.1124,-5.1203,-5.1348,-5.1361,-5.1185,-5.1183,-5.1181,0,-5.0811,-5.0888,-5.0957,-5.0976,-5.1012,-5.1045,-5.1062,-5.109,-5.1117,-5.1154,-5.1172,-5.1215,-5.1238,-5.1271,-5.1271,-5.1238,-5.1352,-5.1305,-5.1354,-5.1354,-5.1376,-5.1374,-5.1523,-5.1397,-5.1397,-5.1397,-5.1396,0,-5.0927,-5.0988,-5.0996,-5.1038,-5.1106,-5.1105,-5.1172,-5.1185,-5.1211,-5.1254,-5.1239,-5.128,-5.128,-5.1322,-5.1323,-5.1388,-5.1399,-5.1402,-5.1401,-5.1401,-5.14,-5.1413,-5.1405,-5.1401,-5.14,-5.1399,-5.1398,0,-5.1032,-5.104,-5.1114,-5.1143,-5.1152,-5.1201,-5.1225,-5.1265,-5.1273,-5.1329,-5.1342,-5.1355,-5.1403,-5.1408,-5.1464,-5.1465,-5.1542,-5.1536,-5.1532,-5.1529,-5.1577,-5.1571,-5.1737,-5.1757,-5.1621,-5.1623,-5.1624,0,-5.1103,-5.115,-5.1185,-5.1213,-5.1232,-5.1278,-5.1307,-5.1307,-5.1337,-5.1376,-5.1411,-5.1459,-5.1496,-5.1574,-5.1588,-5.1631,-5.1623,-5.1678,-5.1629,-5.1627,-5.1619,-5.1615,-5.1619,-5.1686,-5.1688,-5.1689,-5.169,0,-5.1228,-5.123,-5.1272,-5.1316,-5.135,-5.1384,-5.1416,-5.1441,-5.1445,-5.148,-5.1529,-5.1559,-5.1617,-5.1663,-5.1705,-5.1721,-5.1705,-5.1706,-5.1719,-5.1718,-5.1712,-5.1713,-5.1554,-5.1701,-5.17,-5.1699,-5.1698,-5.1698,-5.1317,-5.1356,-5.1387,-5.1434,-5.1458,-5.1489,-5.1527,-5.1541,-5.1583,-5.163,-5.1628,-5.1683,-5.1712,-5.1767,-5.1787,-5.1829,-5.181,-5.183,-5.1834,-5.1838,-5.1841,-5.1709,-5.1837,-5.1837,-5.1836,-5.1836,-5.1836,0,-5.1438,-5.1457,-5.15,-5.1545,-5.1582,-5.1567,-5.1602,-5.1633,-5.1681,-5.1711,-5.1748,-5.1805,-5.185,-5.1868,-5.1912,-5.1942,-5.1936,-5.1953,-5.1949,-5.1952,-5.1857,-5.184,-5.1957,-5.1957,-5.1957,-5.1957,-5.1957,-5.1957,-5.1505,-5.1571,-5.1577,-5.1654,-5.1673,-5.1726,-5.1747,-5.1775,-5.1798,-5.1862,-5.19,-5.1912,-5.1936,-5.1982,-5.2022,-5.2026,-5.2042,-5.2061,-5.2062,-5.1972,-5.1959,-5.1947,-5.1931,-5.2066,-5.2066,-5.2153,-5.2154,-5.2155]},{"header":{"parameterUnit":"m.s-1","parameterCategory":1,"la1":30.2991,"la2":30.254,"lo1":-89.0895,"lo2":-89.0444,"dy":0.0017,"dx":0.0017,"nx":28,"ny":28,"refTime":"2024-05-16T21:00:00:Z","depth":0,"parameterNumber":3,"parameterNumberName":"V-component_of_WINDS"},"data":[0,0,0,0,0,0,0,0,0,0,0,0,0,0,0,0,0,0,0,0,0,0,0,0,0,0,0,0,0,0,0,0,0,0,0,0,0,0,0,0,0,0,0,0,0,0,0,0,0,0,0,0,0,0,0,0,0,0,4.4592,4.4592,0,4.4544,4.4543,4.4543,4.4449,4.4447,4.4445,4.4443,4.4394,4.4394,4.4394,0,0,0,0,0,0,0,0,0,0,0,0,0,4.4606,4.4606,4.4592,4.4592,4.4591,4.4544,4.4543,4.4543,4.4449,4.4447,4.4445,4.4443,4.4393,4.4394,4.4394,0,0,0,0,0,0,0,0,0,0,0,0,0,4.4583,4.4606,4.4593,4.4539,4.4534,4.4544,4.4543,4.4542,4.445,4.4447,4.4444,4.4442,4.4393,4.4394,4.4394,4.4453,0,0,4.4396,4.4396,0,0,0,0,0,0,0,0,4.4584,4.4583,4.4547,4.4543,4.4537,4.45,4.453,4.4512,4.445,4.4482,4.4443,4.444,4.4431,4.4428,4.4425,4.4451,4.4449,4.4396,4.4397,4.4397,4.4397,0,0,0,0,0,0,0,4.4586,4.4584,4.4573,4.4547,4.454,4.4518,4.4511,4.4526,4.4472,4.4479,4.4472,4.4467,4.4428,4.4425,4.4423,4.4448,4.4396,4.4397,4.4397,4.4397,4.4521,4.4523,0,0,0,0,0,0,4.4595,4.4586,4.4575,4.4572,4.4554,4.452,4.4513,4.4514,4.4472,4.4463,4.447,4.4463,4.4425,4.4423,4.4421,4.4487,4.4397,4.4397,4.4398,4.4518,4.4521,4.4524,0,0,0,0,0,0,4.4596,4.4595,4.4577,4.4577,4.4573,4.4522,4.4525,4.4515,4.4512,4.4465,4.4455,4.4477,4.4423,4.4421,4.4446,4.4484,4.4398,4.4398,4.4514,4.4519,4.4523,4.462,0,0,0,0,0,0,4.4597,4.4596,4.4617,4.4578,4.4573,4.4602,4.4527,4.4516,4.4513,4.4504,4.4469,4.4461,4.4421,4.4446,4.4447,4.4484,4.4399,4.4511,4.4516,4.4522,4.4613,4.4628,4.464,0,0,0,0,0,4.4598,4.4646,4.4619,4.4618,4.4599,4.4604,4.4602,4.4555,4.4517,4.4538,4.4508,4.4462,4.4481,4.4449,4.445,4.4487,4.4508,4.4515,4.4521,4.4608,4.4625,4.4639,0,0,0,0,0,0,4.469,4.464,4.4609,4.4646,4.4631,4.4589,4.4613,4.4574,4.4569,4.456,4.4503,4.4496,4.4529,4.4511,4.4477,4.4543,4.4487,4.4494,4.4553,4.4569,4.4582,4.4585,4.4399,0,0,0,0,0,4.4716,4.4724,4.468,4.4717,4.4711,4.4664,4.4665,4.4631,4.4612,4.4604,4.4576,4.456,4.4562,4.4565,4.4564,4.4611,4.4603,4.4638,4.4651,4.4662,4.4668,4.4692,4.4707,4.4546,4.4546,4.4546,0,0,4.4767,4.474,4.4749,4.4735,4.4719,4.4729,4.4659,4.4673,4.468,4.4606,4.4628,4.4608,4.4586,4.4623,4.4638,4.4609,4.4711,4.467,4.4679,4.4679,4.4701,4.4716,4.473,4.4551,4.455,4.4549,0,0,4.4865,4.4846,4.4876,4.4861,4.4838,4.4807,4.4814,4.4779,4.4762,4.4784,4.4729,4.4738,4.4743,4.473,4.4724,4.4821,4.4778,4.4823,4.489,4.4915,4.4928,4.4939,4.4973,4.4986,4.483,4.483,4.483,0,4.4932,4.4945,4.4896,4.4913,4.4909,4.4844,4.4874,4.4862,4.484,4.4839,4.4807,4.4813,4.4794,4.4827,4.4851,4.4849,4.4856,4.4825,4.493,4.494,4.495,4.4982,4.4995,4.4835,4.4835,4.4834,4.4834,0,4.5028,4.5039,4.5065,4.5046,4.5045,4.5069,4.5024,4.5029,4.4996,4.4969,4.4993,4.4968,4.4962,4.4968,4.4935,4.4997,4.498,4.494,4.4883,4.4972,4.5001,4.5013,4.4843,4.4841,4.484,4.4838,0,0,4.5181,4.5136,4.5146,4.5137,4.5108,4.5115,4.5138,4.5132,4.5138,4.5126,4.5142,4.515,4.5113,4.5107,4.5072,4.5094,4.5173,4.5051,4.505,4.5075,4.5241,4.527,4.5285,4.5146,4.5148,4.515,4.5243,0,4.5272,4.5306,4.5263,4.5306,4.5316,4.5256,4.5275,4.526,4.5236,4.5241,4.5215,4.5221,4.5172,4.5168,4.5187,4.516,4.5206,4.5153,4.5161,4.5162,4.5167,4.5301,4.5331,4.542,4.5254,4.5256,4.5257,0,4.5382,4.5375,4.542,4.539,4.5392,4.541,4.5402,4.5408,4.539,4.5372,4.5366,4.5326,4.5346,4.5292,4.532,4.5284,4.5286,4.5273,4.5276,4.5273,4.5214,4.5301,4.5447,4.546,4.5275,4.5273,4.5272,0,4.5488,4.5491,4.5518,4.5513,4.5478,4.5492,4.5478,4.5458,4.5458,4.5452,4.5451,4.5448,4.5446,4.5445,4.5405,4.537,4.5438,4.538,4.5422,4.5424,4.5438,4.5437,4.5585,4.5441,4.5441,4.5441,4.5441,0,4.5593,4.5623,4.5566,4.5582,4.5614,4.5566,4.5599,4.5579,4.5562,4.5575,4.5523,4.5536,4.5483,4.5491,4.5461,4.5488,4.5488,4.5473,4.5464,4.5477,4.5479,4.5476,4.5468,4.5444,4.5443,4.5443,4.5442,0,4.5716,4.5679,4.5705,4.5671,4.5663,4.5688,4.5659,4.5673,4.5648,4.5664,4.5665,4.5625,4.5631,4.5592,4.5591,4.5571,4.5613,4.5594,4.5619,4.5613,4.5657,4.5653,4.5807,4.5824,4.5671,4.5673,4.5674,0,4.5784,4.5806,4.5775,4.578,4.5769,4.5777,4.5777,4.5732,4.5734,4.5717,4.5734,4.5737,4.5736,4.575,4.572,4.572,4.57,4.5754,4.5699,4.5712,4.57,4.5699,4.5701,4.5765,4.5767,4.5768,4.577,0,4.591,4.5892,4.5894,4.5891,4.5892,4.5888,4.5879,4.5886,4.5837,4.5843,4.5849,4.5849,4.5849,4.5853,4.5847,4.5833,4.5794,4.5788,4.5797,4.5809,4.5823,4.5816,4.5649,4.5784,4.5782,4.5781,4.578,4.578,4.6007,4.6024,4.6005,4.601,4.5999,4.5994,4.6006,4.5982,4.5987,4.5983,4.5957,4.5969,4.5952,4.5941,4.5931,4.594,4.5914,4.5929,4.5932,4.5936,4.5943,4.5823,4.5939,4.5939,4.5938,4.5938,4.5938,0,4.613,4.6116,4.6121,4.6111,4.6115,4.6079,4.6069,4.6075,4.6086,4.6074,4.6075,4.6083,4.6087,4.6059,4.606,4.6072,4.6054,4.6074,4.6072,4.6069,4.5967,4.5958,4.6088,4.6088,4.6088,4.6088,4.6088,4.6088,4.6194,4.622,4.62,4.6222,4.6207,4.6218,4.6216,4.621,4.6201,4.6212,4.6216,4.6198,4.618,4.6179,4.6181,4.6173,4.6175,4.6201,4.6187,4.6091,4.6076,4.6062,4.6054,4.6202,4.6202,4.6288,4.6289,4.629]}]]